TimeEDT,TemperatureF,Dew PointF,Humidity,Sea Level PressureIn,VisibilityMPH,Wind Direction,Wind SpeedMPH,Gust SpeedMPH,PrecipitationIn,Events,Conditions,WindDirDegrees,DateUTC
12:15 AM,53.6,46.4,77,30.14,10.0,SSW,5.8,-,N/A,,Overcast,200,2013-04-29 04:15:00
12:35 AM,53.4,46.9,79,30.13,10.0,South,5.8,-,N/A,,Overcast,190,2013-04-29 04:35:00
12:55 AM,52.9,47.3,81,30.14,10.0,SW,4.6,-,N/A,,Overcast,220,2013-04-29 04:55:00
1:15 AM,52.7,47.7,83,30.13,10.0,SSW,4.6,-,N/A,,Overcast,200,2013-04-29 05:15:00
1:35 AM,52.7,47.8,84,30.13,10.0,SW,3.5,-,N/A,,Overcast,230,2013-04-29 05:35:00
1:55 AM,52.9,47.8,83,30.12,10.0,SSW,3.5,-,N/A,,Overcast,200,2013-04-29 05:55:00
2:15 AM,53.1,47.8,82,30.11,10.0,SSW,4.6,-,N/A,,Overcast,210,2013-04-29 06:15:00
2:35 AM,53.6,47.8,81,30.11,10.0,SSW,3.5,-,N/A,,Overcast,200,2013-04-29 06:35:00
2:55 AM,53.2,48.2,83,30.10,10.0,SSW,3.5,-,N/A,,Overcast,210,2013-04-29 06:55:00
3:15 AM,53.2,48.4,84,30.09,10.0,SSW,4.6,-,N/A,,Overcast,210,2013-04-29 07:15:00
3:35 AM,53.2,48.4,84,30.09,10.0,WSW,3.5,-,N/A,,Overcast,240,2013-04-29 07:35:00
3:55 AM,52.9,48.4,85,30.08,10.0,Calm,Calm,-,N/A,,Overcast,0,2013-04-29 07:55:00
4:15 AM,52.7,48.4,85,30.08,10.0,Calm,Calm,-,N/A,Rain,Rain,0,2013-04-29 08:15:00
4:35 AM,52.7,48.7,86,30.08,10.0,Calm,Calm,-,N/A,Rain,Rain,0,2013-04-29 08:35:00
4:55 AM,52.7,48.9,87,30.07,10.0,Calm,Calm,-,N/A,,Overcast,0,2013-04-29 08:55:00
5:15 AM,52.7,49.1,88,30.06,10.0,Calm,Calm,-,N/A,,Overcast,0,2013-04-29 09:15:00
5:35 AM,52.7,49.3,88,30.06,10.0,Calm,Calm,-,N/A,,Overcast,0,2013-04-29 09:35:00
5:55 AM,52.7,49.1,88,30.06,10.0,Calm,Calm,-,N/A,,Overcast,0,2013-04-29 09:55:00
6:15 AM,52.7,49.1,88,30.06,10.0,Calm,Calm,-,N/A,,Overcast,0,2013-04-29 10:15:00
6:35 AM,52.3,49.5,90,30.07,10.0,Calm,Calm,-,N/A,,Overcast,0,2013-04-29 10:35:00
6:55 AM,52.7,49.3,88,30.08,10.0,Calm,Calm,-,N/A,Rain,Rain,0,2013-04-29 10:55:00
7:15 AM,52.7,49.5,89,30.08,10.0,Calm,Calm,-,N/A,,Overcast,0,2013-04-29 11:15:00
7:35 AM,52.7,50.0,91,30.08,7.0,Calm,Calm,-,N/A,,Overcast,0,2013-04-29 11:35:00
7:55 AM,53.4,50.0,88,30.08,10.0,Calm,Calm,-,N/A,,Overcast,0,2013-04-29 11:55:00
8:15 AM,53.6,50.2,88,30.09,10.0,Calm,Calm,-,N/A,,Overcast,0,2013-04-29 12:15:00
8:35 AM,54.3,50.9,88,30.09,10.0,WNW,3.5,-,N/A,,Overcast,300,2013-04-29 12:35:00
8:55 AM,55.0,50.7,85,30.09,10.0,Calm,Calm,-,N/A,,Overcast,0,2013-04-29 12:55:00
9:15 AM,55.4,50.9,85,30.09,10.0,Calm,Calm,-,N/A,,Overcast,0,2013-04-29 13:15:00
9:35 AM,55.4,50.7,84,30.08,10.0,Calm,Calm,-,N/A,,Overcast,0,2013-04-29 13:35:00
9:55 AM,55.9,50.7,83,30.09,10.0,Calm,Calm,-,N/A,,Overcast,0,2013-04-29 13:55:00
10:15 AM,56.3,50.5,81,30.08,10.0,Calm,Calm,-,N/A,,Overcast,0,2013-04-29 14:15:00
10:35 AM,56.8,50.5,79,30.08,10.0,Calm,Calm,-,N/A,,Overcast,0,2013-04-29 14:35:00
10:55 AM,57.2,50.9,79,30.08,10.0,Calm,Calm,-,N/A,,Overcast,0,2013-04-29 14:55:00
11:15 AM,57.7,51.3,79,30.08,10.0,Calm,Calm,-,N/A,,Overcast,0,2013-04-29 15:15:00
11:35 AM,58.3,51.3,77,30.08,10.0,Calm,Calm,-,N/A,,Overcast,0,2013-04-29 15:35:00
11:55 AM,59.7,52.3,77,30.08,10.0,Calm,Calm,-,N/A,,Overcast,0,2013-04-29 15:55:00
12:15 PM,61.0,52.5,74,30.08,10.0,SW,3.5,-,N/A,,Overcast,230,2013-04-29 16:15:00
12:35 PM,61.9,52.5,71,30.07,10.0,Calm,Calm,-,N/A,,Overcast,0,2013-04-29 16:35:00
12:55 PM,61.7,52.0,70,30.07,10.0,Calm,Calm,-,N/A,,Overcast,0,2013-04-29 16:55:00
1:15 PM,62.1,52.5,71,30.06,10.0,SW,3.5,-,N/A,,Overcast,220,2013-04-29 17:15:00
1:35 PM,63.9,53.2,68,30.06,10.0,Calm,Calm,-,N/A,,Overcast,0,2013-04-29 17:35:00
1:55 PM,64.2,53.2,67,30.05,10.0,SSE,4.6,-,N/A,,Overcast,160,2013-04-29 17:55:00
2:15 PM,64.8,52.5,64,30.04,10.0,SSW,3.5,-,N/A,,Overcast,200,2013-04-29 18:15:00
2:35 PM,64.9,51.8,62,30.04,10.0,Calm,Calm,-,N/A,,Overcast,0,2013-04-29 18:35:00
2:55 PM,64.4,52.0,64,30.04,10.0,Calm,Calm,-,N/A,,Overcast,0,2013-04-29 18:55:00
3:15 PM,65.1,52.3,63,30.03,10.0,Calm,Calm,-,N/A,,Overcast,0,2013-04-29 19:15:00
3:35 PM,65.7,52.7,63,30.03,10.0,Calm,Calm,-,N/A,,Overcast,0,2013-04-29 19:35:00
3:55 PM,66.9,53.1,61,30.02,10.0,Calm,Calm,-,N/A,,Overcast,0,2013-04-29 19:55:00
4:15 PM,68.0,53.6,60,30.01,10.0,NNE,4.6,-,N/A,,Scattered Clouds,20,2013-04-29 20:15:00
4:35 PM,68.5,52.9,57,30.00,10.0,Calm,Calm,-,N/A,,Mostly Cloudy,0,2013-04-29 20:35:00
4:55 PM,68.4,53.1,58,30.00,10.0,Calm,Calm,-,N/A,,Mostly Cloudy,0,2013-04-29 20:55:00
5:15 PM,68.9,53.4,58,30.00,10.0,NE,3.5,-,N/A,,Mostly Cloudy,40,2013-04-29 21:15:00
5:35 PM,68.9,52.9,57,30.00,10.0,NE,4.6,-,N/A,,Mostly Cloudy,40,2013-04-29 21:35:00
5:55 PM,67.5,54.1,62,30.00,10.0,NE,9.2,-,N/A,,Overcast,40,2013-04-29 21:55:00
6:15 PM,66.6,54.0,64,30.01,10.0,East,5.8,-,N/A,,Overcast,80,2013-04-29 22:15:00
6:35 PM,65.7,54.0,66,30.01,10.0,ESE,6.9,-,N/A,,Overcast,120,2013-04-29 22:35:00
6:55 PM,63.7,53.4,69,30.02,10.0,SE,4.6,-,N/A,,Scattered Clouds,130,2013-04-29 22:55:00
7:15 PM,62.8,52.7,70,30.03,10.0,SSE,4.6,-,N/A,,Mostly Cloudy,150,2013-04-29 23:15:00
7:35 PM,62.2,52.7,71,30.03,10.0,SSE,3.5,-,N/A,,Overcast,150,2013-04-29 23:35:00
7:55 PM,61.7,52.9,73,30.04,10.0,East,3.5,-,N/A,,Overcast,100,2013-04-29 23:55:00
8:15 PM,61.7,52.7,72,30.04,10.0,Calm,Calm,-,N/A,,Overcast,0,2013-04-30 00:15:00
8:35 PM,61.2,52.9,74,30.05,10.0,Calm,Calm,-,N/A,,Overcast,0,2013-04-30 00:35:00
9:15 PM,60.1,53.6,79,30.07,10.0,SE,3.5,-,N/A,,Overcast,140,2013-04-30 01:15:00
9:35 PM,61.2,53.2,75,30.08,10.0,Calm,Calm,-,N/A,,Overcast,0,2013-04-30 01:35:00
9:55 PM,61.2,53.4,76,30.08,10.0,Calm,Calm,-,N/A,,Overcast,0,2013-04-30 01:55:00
10:15 PM,60.8,53.6,77,30.08,10.0,Calm,Calm,-,N/A,,Overcast,0,2013-04-30 02:15:00
10:35 PM,60.1,54.0,80,30.08,10.0,Calm,Calm,-,N/A,,Overcast,0,2013-04-30 02:35:00
10:55 PM,60.8,53.8,78,30.08,10.0,North,3.5,-,N/A,,Overcast,350,2013-04-30 02:55:00
11:15 PM,60.1,53.8,80,30.08,10.0,Calm,Calm,-,N/A,,Overcast,0,2013-04-30 03:15:00
11:35 PM,60.1,53.6,79,30.08,10.0,Calm,Calm,-,N/A,,Overcast,0,2013-04-30 03:35:00
11:55 PM,59.9,53.8,80,30.08,10.0,NNE,3.5,-,N/A,,Overcast,20,2013-04-30 03:55:00